This is the latest recevied weather packets stored in our database for station/object WB5LJZ-5. If no packets are shown the sender has not sent any weather packets the latest 10 day(s).
| Time | Temp. | Humidity | Pressure | Rain* | Wind** | Luminosity | Snow |
|---|---|---|---|---|---|---|---|
| 1777705405 | 11.11° C | - | - | 0 mm | 1.79 m/s, 359° | - | - |
| 1777704770 | 11.67° C | - | - | 0 mm | 2.24 m/s, 339° | - | - |
| 1777704133 | 11.67° C | - | - | 0 mm | 1.79 m/s, 359° | - | - |
| 1777703497 | 11.67° C | - | - | 0 mm | 2.24 m/s, 17° | - | - |
| 1777702861 | 11.67° C | - | - | 0 mm | 2.68 m/s, 31° | - | - |
| 1777702226 | 11.67° C | - | - | 0 mm | 2.68 m/s, 37° | - | - |
| 1777701589 | 12.22° C | - | - | 0 mm | 2.68 m/s, 20° | - | - |
| 1777700954 | 12.22° C | - | - | 0 mm | 4.02 m/s, 6° | - | - |
| 1777700318 | 12.22° C | - | - | 0 mm | 2.24 m/s, 0° | - | - |
| 1777699682 | 12.22° C | - | - | 0 mm | 2.68 m/s, 359° | - | - |
| 1777699046 | 12.22° C | - | - | 0 mm | 1.79 m/s, 359° | - | - |
| 1777698410 | 12.22° C | - | - | 0 mm | 1.79 m/s, 11° | - | - |
| 1777697774 | 12.78° C | - | - | 0 mm | 4.47 m/s, 24° | - | - |
| 1777697138 | 12.78° C | - | - | 0 mm | 3.13 m/s, 21° | - | - |
| 1777696502 | 12.78° C | - | - | 0 mm | 4.47 m/s, 20° | - | - |
| 1777695867 | 12.78° C | - | - | 0 mm | 4.47 m/s, 1° | - | - |
| 1777695231 | 12.78° C | - | - | 0 mm | 3.13 m/s, 359° | - | - |
| 1777694595 | 12.78° C | - | - | 0 mm | 3.58 m/s, 31° | - | - |
| 1777693959 | 12.78° C | - | - | 0 mm | 5.36 m/s, 31° | - | - |
| 1777693324 | 13.33° C | - | - | 0 mm | 6.26 m/s, 4° | - | - |
| 1777692688 | 13.33° C | - | - | 0 mm | 4.47 m/s, 1° | - | - |
| 1777692052 | 13.33° C | - | - | 0 mm | 3.58 m/s, 15° | - | - |
| 1777691416 | 13.89° C | - | - | 0 mm | 4.47 m/s, 0° | - | - |
| 1777690780 | 13.89° C | - | - | 0 mm | 4.02 m/s, 10° | - | - |
| 1777690145 | 14.44° C | - | - | 0 mm | 5.81 m/s, 8° | - | - |
* Rain latest hour (hover to see other rain measurements)
** Current wind speed in m/s (hover to see current wind gust speed)